Hourly Weather Vratsa

Today, 22 October, Thursday

Time Temperature Precipitation Wind Pressure Humidity
00:00 +9°C° 0 mm 1 mps 714 mmHg 72%
01:00 +9°C° 0 mm 1 mps 713 mmHg 72%
02:00 +9°C° 0 mm 1 mps 713 mmHg 72%
03:00 +8°C° 0 mm 1 mps 713 mmHg 72%
04:00 +8°C° 0 mm 1 mps 713 mmHg 72%
05:00 +8°C° 0 mm 1 mps 713 mmHg 72%
06:00 +8°C° 0 mm 1 mps 713 mmHg 70%
07:00 +9°C° 0 mm 1 mps 713 mmHg 68%
08:00 +9°C° 0 mm 1 mps 713 mmHg 66%
09:00 +12°C° 0 mm 1 mps 713 mmHg 58%
10:00 +14°C° 0 mm 1 mps 714 mmHg 50%
11:00 +15°C° 0 mm 0 mps 714 mmHg 43%
12:00 +18°C° 0 mm 1 mps 714 mmHg 40%
13:00 +20°C° 0 mm 1 mps 714 mmHg 37%
14:00 +21°C° 0 mm 1 mps 713 mmHg 34%
15:00 +19°C° 0 mm 1 mps 713 mmHg 39%
16:00 +18°C° 0 mm 1 mps 713 mmHg 43%
17:00 +15°C° 0 mm 0 mps 712 mmHg 48%
18:00 +14°C° 0 mm 0 mps 712 mmHg 49%
19:00 +13°C° 0 mm 0 mps 712 mmHg 49%
20:00 +12°C° 0 mm 1 mps 713 mmHg 50%
21:00 +12°C° 0 mm 1 mps 713 mmHg 49%
22:00 +12°C° 0 mm 1 mps 712 mmHg 48%
23:00 +12°C° 0 mm 1 mps 712 mmHg 47%

Tomorrow, 23 October, Friday

Time Temperature Precipitation Wind Pressure Humidity
00:00 +12°C° 0 mm 1 mps 712 mmHg 48%
01:00 +11°C° 0 mm 1 mps 712 mmHg 48%
02:00 +11°C° 0 mm 1 mps 712 mmHg 49%
03:00 +11°C° 0 mm 1 mps 712 mmHg 49%
04:00 +10°C° 0 mm 1 mps 712 mmHg 50%
05:00 +10°C° 0 mm 1 mps 711 mmHg 50%
06:00 +11°C° 0 mm 1 mps 711 mmHg 51%
07:00 +11°C° 0 mm 1 mps 711 mmHg 51%
08:00 +11°C° 0 mm 1 mps 712 mmHg 52%
09:00 +14°C° 0 mm 1 mps 712 mmHg 46%
10:00 +16°C° 0 mm 1 mps 712 mmHg 40%
11:00 +20°C° 0 mm 1 mps 712 mmHg 34%
12:00 +21°C° 0 mm 1 mps 712 mmHg 32%
13:00 +22°C° 0 mm 1 mps 711 mmHg 29%
14:00 +23°C° 0 mm 1 mps 711 mmHg 27%
15:00 +22°C° 0 mm 1 mps 711 mmHg 32%
16:00 +20°C° 0 mm 1 mps 710 mmHg 36%
17:00 +16°C° 0 mm 0 mps 710 mmHg 41%
18:00 +16°C° 0 mm 1 mps 710 mmHg 41%
19:00 +15°C° 0 mm 1 mps 710 mmHg 41%
20:00 +14°C° 0 mm 1 mps 710 mmHg 41%
21:00 +14°C° 0 mm 1 mps 710 mmHg 42%
22:00 +14°C° 0 mm 1 mps 710 mmHg 43%
23:00 +14°C° 0 mm 1 mps 710 mmHg 44%

Day after tomorrow, 24 October, Saturday

Time Temperature Precipitation Wind Pressure Humidity
00:00 +13°C° 0 mm 1 mps 709 mmHg 45%
01:00 +13°C° 0 mm 1 mps 709 mmHg 46%
02:00 +13°C° 0 mm 1 mps 709 mmHg 47%
03:00 +13°C° 0 mm 1 mps 709 mmHg 47%
04:00 +13°C° 0 mm 1 mps 709 mmHg 48%
05:00 +13°C° 0 mm 1 mps 708 mmHg 48%
06:00 +13°C° 0 mm 1 mps 708 mmHg 47%
07:00 +13°C° 0 mm 1 mps 709 mmHg 47%
08:00 +13°C° 0 mm 1 mps 709 mmHg 46%
09:00 +15°C° 0 mm 1 mps 709 mmHg 41%
10:00 +18°C° 0 mm 1 mps 709 mmHg 37%
11:00 +20°C° 0 mm 1 mps 709 mmHg 32%
12:00 +20°C° 0 mm 2 mps 709 mmHg 32%
13:00 +20°C° 0 mm 2 mps 709 mmHg 32%
14:00 +20°C° 0 mm 3 mps 709 mmHg 32%
15:00 +19°C° 0 mm 2 mps 709 mmHg 39%
16:00 +18°C° 0 mm 2 mps 709 mmHg 47%
17:00 +18°C° 0 mm 1 mps 708 mmHg 54%
18:00 +16°C° 0 mm 1 mps 709 mmHg 56%
19:00 +16°C° 0 mm 1 mps 709 mmHg 58%
20:00 +15°C° 0 mm 1 mps 709 mmHg 59%
21:00 +15°C° 0 mm 1 mps 709 mmHg 61%
22:00 +15°C° 0 mm 1 mps 709 mmHg 63%
23:00 +14°C° 0 mm 0 mps 709 mmHg 64%

, 25 October, Sunday

Time Temperature Precipitation Wind Pressure Humidity
00:00 +13°C° 0 mm 0 mps 709 mmHg 68%
01:00 +14°C° 0 mm 1 mps 709 mmHg 71%
02:00 +13°C° 0 mm 1 mps 708 mmHg 74%
03:00 +12°C° 0 mm 0 mps 708 mmHg 78%
04:00 +11°C° 0 mm 0 mps 708 mmHg 81%
05:00 +11°C° 0 mm 0 mps 709 mmHg 85%
06:00 +11°C° 0 mm 0 mps 709 mmHg 85%
07:00 +11°C° 0 mm 0 mps 709 mmHg 84%
08:00 +12°C° 0 mm 0 mps 709 mmHg 84%
09:00 +14°C° 0 mm 1 mps 709 mmHg 80%
10:00 +15°C° 0 mm 1 mps 709 mmHg 76%
11:00 +16°C° 0 mm 1 mps 709 mmHg 72%
12:00 +16°C° 0 mm 2 mps 709 mmHg 70%
13:00 +16°C° 0 mm 2 mps 709 mmHg 68%
14:00 +17°C° 0 mm 2 mps 708 mmHg 66%
15:00 +16°C° 0 mm 2 mps 708 mmHg 68%
16:00 +16°C° 0 mm 1 mps 708 mmHg 69%
17:00 +16°C° 0 mm 1 mps 708 mmHg 71%
18:00 +15°C° 0 mm 1 mps 708 mmHg 74%
19:00 +14°C° 0 mm 1 mps 708 mmHg 77%
20:00 +13°C° 0 mm 1 mps 708 mmHg 80%
21:00 +13°C° 0 mm 1 mps 708 mmHg 82%
22:00 +12°C° 0 mm 1 mps 708 mmHg 84%
23:00 +12°C° 0 mm 1 mps 708 mmHg 85%

25 October, Sunday

Time Temperature Precipitation Wind Pressure Humidity
00:00 +13°C° 0 mm 0 mps 709 mmHg 68%
01:00 +14°C° 0 mm 1 mps 709 mmHg 71%
02:00 +13°C° 0 mm 1 mps 708 mmHg 74%
03:00 +12°C° 0 mm 0 mps 708 mmHg 78%
04:00 +11°C° 0 mm 0 mps 708 mmHg 81%
05:00 +11°C° 0 mm 0 mps 709 mmHg 85%
06:00 +11°C° 0 mm 0 mps 709 mmHg 85%
07:00 +11°C° 0 mm 0 mps 709 mmHg 84%
08:00 +12°C° 0 mm 0 mps 709 mmHg 84%
09:00 +14°C° 0 mm 1 mps 709 mmHg 80%
10:00 +15°C° 0 mm 1 mps 709 mmHg 76%
11:00 +16°C° 0 mm 1 mps 709 mmHg 72%
12:00 +16°C° 0 mm 2 mps 709 mmHg 70%
13:00 +16°C° 0 mm 2 mps 709 mmHg 68%
14:00 +17°C° 0 mm 2 mps 708 mmHg 66%
15:00 +16°C° 0 mm 2 mps 708 mmHg 68%
16:00 +16°C° 0 mm 1 mps 708 mmHg 69%
17:00 +16°C° 0 mm 1 mps 708 mmHg 71%
18:00 +15°C° 0 mm 1 mps 708 mmHg 74%
19:00 +14°C° 0 mm 1 mps 708 mmHg 77%
20:00 +13°C° 0 mm 1 mps 708 mmHg 80%
21:00 +13°C° 0 mm 1 mps 708 mmHg 82%
22:00 +12°C° 0 mm 1 mps 708 mmHg 84%
23:00 +12°C° 0 mm 1 mps 708 mmHg 85%

26 October, Monday

Time Temperature Precipitation Wind Pressure Humidity
00:00 +12°C° 0 mm 1 mps 708 mmHg 86%
01:00 +11°C° 0 mm 1 mps 707 mmHg 87%
02:00 +11°C° 0 mm 1 mps 707 mmHg 88%
03:00 +11°C° 0 mm 1 mps 707 mmHg 89%
04:00 +11°C° 0 mm 1 mps 707 mmHg 90%
05:00 +10°C° 0 mm 0 mps 707 mmHg 91%
06:00 +10°C° 0 mm 0 mps 707 mmHg 90%
07:00 +10°C° 0 mm 0 mps 707 mmHg 90%
08:00 +10°C° 0 mm 0 mps 707 mmHg 89%
09:00 +12°C° 0.2 mm 1 mps 707 mmHg 83%
10:00 +14°C° 0.2 mm 1 mps 707 mmHg 77%
11:00 +15°C° 0.2 mm 1 mps 707 mmHg 72%
12:00 +16°C° 0.2 mm 1 mps 707 mmHg 69%
13:00 +16°C° 0.2 mm 1 mps 707 mmHg 66%
14:00 +18°C° 0.2 mm 1 mps 707 mmHg 64%
15:00 +16°C° 0.1 mm 1 mps 707 mmHg 67%
16:00 +16°C° 0.1 mm 1 mps 706 mmHg 71%
17:00 +15°C° 0.1 mm 1 mps 706 mmHg 75%
18:00 +14°C° 0 mm 1 mps 706 mmHg 79%
19:00 +13°C° 0 mm 1 mps 706 mmHg 84%
20:00 +12°C° 0 mm 1 mps 706 mmHg 88%
21:00 +11°C° 0 mm 0 mps 707 mmHg 89%
22:00 +10°C° 0 mm 0 mps 707 mmHg 91%
23:00 +10°C° 0 mm 0 mps 707 mmHg 92%

27 October, Tuesday

Time Temperature Precipitation Wind Pressure Humidity
00:00 +10°C° 0 mm 0 mps 707 mmHg 92%
01:00 +10°C° 0 mm 0 mps 707 mmHg 92%
02:00 +10°C° 0 mm 0 mps 707 mmHg 92%
03:00 +9°C° 0 mm 0 mps 707 mmHg 92%
04:00 +9°C° 0 mm 0 mps 706 mmHg 93%
05:00 +9°C° 0 mm 0 mps 706 mmHg 93%
06:00 +9°C° 0 mm 0 mps 707 mmHg 92%
07:00 +10°C° 0 mm 0 mps 707 mmHg 91%
08:00 +10°C° 0 mm 0 mps 707 mmHg 89%
09:00 +13°C° 0 mm 1 mps 707 mmHg 83%
10:00 +14°C° 0 mm 1 mps 708 mmHg 76%
11:00 +16°C° 0 mm 1 mps 708 mmHg 69%
12:00 +17°C° 0 mm 2 mps 708 mmHg 66%
13:00 +17°C° 0 mm 2 mps 707 mmHg 63%
14:00 +18°C° 0 mm 2 mps 707 mmHg 60%
15:00 +17°C° 0 mm 2 mps 707 mmHg 65%
16:00 +16°C° 0 mm 2 mps 707 mmHg 70%
17:00 +16°C° 0 mm 2 mps 706 mmHg 74%
18:00 +15°C° 0 mm 1 mps 706 mmHg 79%
19:00 +14°C° 0 mm 1 mps 706 mmHg 83%
20:00 +12°C° 0 mm 0 mps 706 mmHg 88%
21:00 +12°C° 0 mm 0 mps 706 mmHg 89%
22:00 +12°C° 0 mm 0 mps 706 mmHg 89%
23:00 +11°C° 0 mm 0 mps 706 mmHg 90%
Show more